Wind_Speed
35 36 40 44 39 39 39 36 36 33 37 39 41 39 41 38 40 41 42 43 35 47 42 44 37 38 43 42 35 35 36 36 31 30 32 33 35 30 37 37 39 37 39
36 40 40 43 38 38 37 33 29 32 35 41 39 37 36 34 32 36 39 39 40 42 48 46 37 38 42 40 38 36 35 37 34 32 33 31 32 36 40 37 40 41 44
38 42 42 43 38 37 36 34 28 29 26 30 34 35 37 37 33 36 36 34 37 41 42 31 39 37 41 40 38 35 36 36 35 32 31 32 35 35 37 41 43 43 42
40 44 45 44 38 38 37 35 32 32 31 32 36 36 34 38 29 30 33 28 28 26 29 29 31 36 40 38 36 36 36 37 36 36 36 35 36 38 41 44 41 41 39
42 46 48 44 36 38 41 34 29 29 33 33 28 31 31 39 31 26 28 33 35 30 33 31 32 36 38 37 38 39 40 40 39 39 39 40 40 42 45 44 39 40 37
44 48 48 36 33 36 34 39 30 36 23 30 28 37 31 33 28 29 30 31 28 26 35 30 32 37 37 37 37 37 38 38 39 40 41 43 44 38 41 45 39 40 36
45 46 37 36 31 31 29 24 27 29 32 27 25 35 42 28 32 34 31 32 29 33 36 32 33 37 35 36 39 38 37 39 40 39 42 41 36 37 42 42 37 36 35
38 34 34 34 28 25 20 19 25 24 25 23 27 26 30 33 32 35 34 30 35 36 36 35 35 36 35 38 40 37 35 39 35 34 31 32 36 31 36 40 37 40 35
27 29 22 18 18 21 24 21 17 20 30 30 31 33 28 35 32 33 32 33 33 32 34 37 39 37 34 37 40 37 36 36 33 30 28 31 32 34 33 35 40 41 41
16 11 9 6 13 15 18 19 22 19 21 29 29 31 30 38 36 36 34 39 37 37 36 36 42 40 39 38 37 38 37 36 33 30 25 31 33 37 36 37 46 45 39
11 12 9 7 4 2 9 16 15 15 19 24 23 30 33 33 40 42 46 47 48 45 45 42 43 46 45 42 38 37 37 36 33 31 27 24 21 30 35 40 44 42 42
3 4 7 11 15 14 10 4 7 10 13 15 18 18 30 31 36 45 45 53 57 53 49 50 47 51 49 45 41 40 39 41 36 34 32 30 31 30 30 26 28 33 34
7 8 9 10 11 11 13 17 19 14 11 10 13 15 19 22 29 39 43 40 48 48 50 53 59 52 50 47 46 44 43 43 42 41 37 36 35 35 32 30 33 31 33
8 9 11 13 14 15 16 17 17 17 20 22 20 18 19 18 18 22 30 36 40 44 47 44 53 54 51 50 51 51 49 49 47 46 46 43 40 40 40 39 40 39 38
15 17 18 20 21 22 22 23 23 23 23 24 25 28 29 28 25 23 25 27 31 35 37 44 51 51 55 62 61 65 54 55 53 54 52 50 49 51 47 48 46 45 44
24 25 26 27 27 28 28 30 31 31 32 34 33 33 33 34 35 39 38 35 33 31 31 35 38 43 50 53 58 56 57 58 53 54 56 58 54 56 59 57 56 54 54
22 23 24 25 26 26 28 29 30 31 34 35 36 38 40 42 42 41 41 43 45 47 46 43 40 41 41 43 46 49 49 56 60 62 60 61 62 62 59 60 58 57 58
22 24 26 28 30 31 33 35 36 37 37 39 40 41 42 44 45 45 46 47 47 48 48 50 51 52 51 50 47 47 47 47 51 55 55 59 62 63 60 58 57 59 62
30 32 34 38 40 42 43 44 45 47 49 50 50 50 50 51 50 50 51 53 53 52 53 53 53 53 55 57 57 57 57 57 56 55 55 56 59 62 63 65 66 66 67
37 41 43 46 47 50 51 52 55 56 58 58 61 61 61 60 60 60 60 58 58 59 60 59 57 58 58 57 58 59 61 61 62 62 63 64 64 64 64 64 65 66 68
44 46 48 52 55 57 59 62 64 66 68 69 70 73 75 74 72 72 70 69 66 64 65 65 66 65 63 62 62 62 62 62 62 63 65 66 66 66 66 66 66 67 68
46 49 52 55 58 63 66 69 73 77 80 82 84 84 82 80 79 77 76 75 72 72 70 70 70 71 71 70 69 67 66 67 67 68 67 67 67 67 67 67 67 66 65
51 55 59 63 67 68 73 78 80 80 83 86 86 85 85 82 80 79 79 80 79 78 77 76 75 74 74 74 74 74 73 72 71 70 70 70 70 70 70 69 68 67 68
60 62 67 72 74 76 79 83 84 77 68 63 60 59 59 58 58 58 59 65 71 74 79 80 81 81 79 77 77 77 77 77 77 75 74 73 73 72 72 71 71 71 71
65 67 73 75 78 80 83 73 63 59 56 55 54 53 52 52 51 51 50 49 52 54 57 61 66 72 78 80 81 81 81 80 79 79 78 77 76 75 74 74 74 73 73
69 72 75 78 80 78 66 61 60 58 56 55 54 53 53 52 51 50 49 47 47 49 49 49 51 54 57 62 67 72 76 80 81 81 80 80 79 78 76 76 75 74 74
Wind_Direction
271 276 285 295 283 288 285 280 278 262 252 243 237 238 242 239 240 242 241 240 239 238 236 238 235 242 236 243 246 248 248 246 241 246 251 252 244 249 247 247 245 248 252
269 276 284 288 284 287 284 275 281 268 254 241 236 234 235 235 248 241 238 240 241 252 248 234 224 232 236 238 244 245 244 239 239 241 247 246 246 250 248 245 246 242 253
270 277 285 288 282 287 277 271 271 258 247 240 234 236 230 236 244 242 244 244 244 246 257 234 211 223 234 238 241 241 240 242 245 248 250 250 249 254 256 254 249 251 250
272 279 286 289 281 285 272 265 271 261 247 236 234 237 237 232 244 238 232 239 225 228 229 223 219 230 236 238 238 236 241 246 252 258 259 257 255 255 257 255 252 252 251
275 280 287 289 280 285 272 263 262 251 247 235 239 242 227 242 232 229 232 233 228 252 248 217 233 232 231 232 234 237 243 249 255 259 262 263 260 260 254 248 243 255 254
275 280 285 281 281 282 268 263 262 244 250 246 254 244 237 225 228 225 230 226 237 229 214 214 226 228 229 233 238 242 247 252 258 262 261 263 263 253 247 242 244 249 249
275 279 282 274 276 269 257 267 254 254 253 249 249 236 229 232 235 232 230 231 235 232 237 229 233 235 232 237 241 243 250 256 259 257 258 260 254 251 240 242 245 246 248
268 270 272 278 271 275 253 264 266 253 222 241 244 218 219 229 236 231 224 233 236 229 233 234 236 238 236 240 245 248 254 257 257 264 256 245 252 244 245 245 241 239 239
261 263 259 263 264 272 271 257 259 251 240 237 244 246 230 225 224 230 229 233 228 229 235 237 240 242 246 248 248 248 251 254 253 259 249 254 248 244 248 240 244 239 243
233 270 268 288 264 261 266 262 255 257 236 237 245 233 242 229 228 236 241 231 235 235 239 243 242 244 246 248 249 249 248 248 251 257 265 242 246 251 250 242 245 237 238
271 273 295 282 293 290 246 252 261 269 245 244 252 245 243 237 225 225 240 235 237 232 241 242 244 241 243 247 247 249 250 250 250 253 257 252 251 252 254 243 244 236 238
353 351 349 339 341 340 332 303 229 240 257 258 258 251 230 234 234 235 234 238 238 245 250 242 246 242 240 244 246 246 247 252 249 249 252 253 253 252 250 247 247 246 246
337 334 329 329 324 322 327 331 332 320 282 254 248 250 247 245 242 237 245 238 238 239 245 241 238 233 236 243 247 249 248 247 251 252 249 252 252 254 255 254 263 260 246
352 351 347 341 335 333 326 320 315 309 310 313 293 254 248 244 239 240 239 237 233 236 241 239 237 233 239 247 251 249 251 252 252 252 253 253 252 256 256 252 250 253 251
345 339 333 328 323 319 316 313 310 306 302 297 295 297 293 287 265 254 245 238 237 240 239 239 235 234 241 238 246 245 241 250 250 253 255 251 258 258 251 256 255 254 249
329 322 318 314 310 306 303 299 295 294 293 290 288 287 286 285 286 288 285 271 254 246 247 246 245 243 245 242 243 246 249 247 251 251 258 261 257 256 255 258 253 254 254
327 323 319 315 312 309 308 306 303 299 295 291 288 285 282 279 276 274 272 274 278 281 278 270 260 252 249 247 247 249 249 252 253 257 253 249 253 252 248 249 247 250 253
326 327 325 322 318 315 312 308 305 301 298 296 293 291 286 283 282 279 277 273 269 267 266 268 271 274 272 269 264 262 256 254 253 253 251 249 247 247 249 250 250 251 252
322 321 318 316 313 310 309 307 303 300 298 295 291 289 288 287 285 282 278 276 275 272 269 266 263 260 259 261 264 267 267 266 265 262 258 257 256 253 251 253 255 256 257
315 314 312 310 309 308 306 304 301 299 298 295 294 291 289 286 285 285 284 280 275 272 270 268 267 265 264 261 259 257 257 257 258 259 261 263 263 262 260 260 260 260 259
312 312 313 313 312 310 308 304 300 298 296 294 291 292 292 290 287 285 283 280 277 272 269 266 265 264 262 262 261 260 260 260 259 259 259 258 258 258 259 259 260 261 262
314 315 314 312 310 307 305 303 301 298 295 293 291 289 287 285 283 279 276 275 273 270 267 265 263 262 260 260 260 260 259 259 259 259 259 258 258 259 260 260 260 261 261
314 314 313 311 311 308 306 306 303 299 296 293 290 287 285 283 280 276 274 270 268 266 265 264 262 260 259 258 258 258 258 257 257 257 258 258 258 259 259 260 260 261 261
313 313 312 312 313 311 309 306 305 303 298 296 293 291 289 286 283 279 274 270 267 264 262 260 260 259 259 258 257 257 257 257 257 257 256 256 256 257 257 258 258 259 260
313 313 313 315 314 312 311 310 306 303 300 298 295 292 290 288 286 283 280 277 274 270 267 265 261 259 256 256 255 255 255 255 256 256 257 258 257 257 257 257 258 259 260
314 315 316 316 314 314 312 309 307 304 301 297 294 291 289 287 285 283 281 278 275 273 271 268 266 264 261 259 256 254 254 254 254 254 255 256 257 258 258 258 259 259 260
Height
5605 5604 5603 5600 5596 5592 5589 5587 5585 5583 5585 5589 5592 5594 5600 5605 5609 5612 5616 5621 5630 5635 5638 5641 5644 5651 5656 5659 5662 5666 5672 5676 5680 5682 5684 5686 5687 5691 5691 5694 5697 5701 5705
5595 5595 5594 5590 5587 5584 5581 5579 5577 5577 5577 5581 5584 5589 5592 5597 5602 5606 5610 5615 5622 5625 5625 5627 5631 5640 5648 5652 5653 5658 5663 5668 5671 5674 5676 5678 5680 5680 5682 5685 5688 5692 5695
5585 5584 5583 5580 5577 5576 5573 5572 5570 5571 5571 5574 5577 5583 5584 5589 5594 5598 5603 5609 5614 5613 5612 5612 5618 5631 5639 5643 5646 5650 5655 5658 5661 5664 5667 5668 5670 5671 5672 5674 5677 5680 5683
5575 5573 5572 5570 5568 5567 5564 5564 5563 5563 5565 5567 5571 5576 5578 5582 5587 5592 5597 5602 5605 5607 5609 5612 5617 5625 5632 5636 5640 5644 5646 5648 5650 5652 5654 5658 5660 5663 5662 5665 5667 5669 5673
5565 5562 5560 5561 5558 5557 5556 5555 5557 5557 5558 5561 5563 5568 5571 5576 5581 5585 5591 5595 5599 5603 5604 5610 5617 5621 5624 5628 5632 5634 5637 5640 5641 5642 5643 5645 5648 5650 5652 5654 5657 5659 5662
5555 5553 5551 5552 5550 5549 5547 5547 5549 5549 5550 5552 5554 5559 5564 5570 5575 5579 5583 5587 5594 5597 5599 5602 5609 5613 5616 5620 5623 5626 5628 5630 5631 5632 5633 5633 5635 5638 5639 5643 5647 5649 5653
5546 5545 5544 5543 5541 5542 5541 5540 5541 5541 5543 5546 5548 5550 5559 5563 5568 5572 5576 5580 5585 5589 5592 5595 5601 5606 5608 5611 5614 5616 5619 5621 5621 5621 5621 5622 5623 5626 5630 5633 5636 5640 5643
5537 5538 5538 5536 5534 5534 5534 5534 5534 5534 5537 5540 5543 5547 5550 5556 5560 5564 5568 5573 5577 5580 5584 5588 5593 5597 5598 5601 5604 5606 5610 5611 5611 5611 5609 5611 5614 5615 5619 5622 5625 5630 5632
5530 5531 5532 5529 5528 5528 5528 5529 5529 5529 5531 5535 5537 5540 5544 5548 5554 5557 5559 5565 5569 5572 5577 5580 5584 5586 5588 5591 5594 5596 5599 5602 5602 5601 5601 5602 5604 5606 5610 5613 5615 5619 5622
5525 5526 5525 5523 5524 5523 5523 5524 5525 5525 5525 5528 5530 5533 5538 5542 5545 5549 5553 5556 5559 5563 5566 5570 5573 5577 5579 5582 5583 5586 5589 5591 5591 5592 5592 5593 5595 5597 5599 5602 5604 5607 5612
5521 5520 5518 5517 5518 5518 5518 5519 5520 5520 5520 5522 5524 5527 5529 5532 5536 5541 5544 5547 5550 5552 5556 5560 5563 5567 5570 5572 5573 5576 5578 5580 5581 5583 5584 5585 5585 5588 5590 5591 5594 5598 5600
5519 5518 5516 5516 5515 5514 5513 5513 5513 5514 5515 5516 5518 5520 5521 5523 5527 5529 5532 5535 5537 5541 5544 5547 5551 5555 5558 5561 5563 5565 5566 5568 5570 5573 5575 5577 5578 5579 5581 5583 5585 5588 5591
5518 5517 5516 5516 5515 5515 5513 5512 5510 5509 5510 5510 5511 5512 5513 5513 5516 5519 5520 5523 5526 5529 5531 5534 5537 5541 5546 5549 5552 5554 5555 5556 5559 5561 5564 5567 5569 5570 5571 5574 5577 5580 5582
5517 5515 5514 5513 5513 5512 5511 5510 5509 5509 5508 5506 5505 5506 5506 5506 5506 5507 5509 5512 5514 5516 5519 5521 5524 5528 5532 5535 5539 5542 5543 5545 5547 5550 5552 5555 5557 5560 5562 5564 5566 5568 5571
5514 5513 5512 5511 5509 5508 5507 5506 5504 5504 5503 5503 5502 5502 5500 5499 5498 5498 5499 5500 5502 5504 5507 5509 5512 5514 5518 5521 5523 5527 5528 5531 5534 5535 5539 5541 5544 5547 5549 5551 5553 5555 5558
5510 5509 5507 5506 5505 5503 5502 5501 5499 5498 5496 5496 5495 5494 5494 5493 5492 5491 5490 5490 5490 5492 5493 5495 5497 5500 5503 5504 5508 5511 5513 5516 5518 5520 5523 5526 5528 5530 5532 5535 5537 5539 5542
5507 5506 5504 5503 5501 5498 5496 5494 5493 5490 5487 5486 5484 5483 5482 5482 5481 5481 5481 5481 5481 5480 5480 5481 5482 5483 5485 5487 5490 5494 5495 5498 5499 5502 5505 5508 5510 5513 5515 5517 5519 5521 5523
5504 5501 5499 5497 5495 5492 5490 5487 5485 5482 5479 5476 5473 5471 5470 5469 5467 5466 5465 5465 5466 5466 5467 5468 5468 5468 5470 5471 5472 5475 5477 5479 5482 5485 5487 5489 5492 5494 5496 5499 5502 5503 5505
5499 5496 5493 5490 5487 5483 5481 5478 5474 5471 5468 5464 5460 5458 5456 5453 5452 5451 5450 5448 5448 5449 5450 5451 5452 5453 5454 5455 5456 5457 5459 5462 5464 5466 5468 5470 5473 5475 5477 5480 5481 5483 5484
5494 5490 5486 5481 5477 5473 5468 5464 5459 5456 5452 5449 5443 5440 5436 5435 5433 5431 5428 5429 5429 5429 5429 5429 5430 5431 5433 5435 5436 5438 5440 5442 5444 5445 5447 5449 5452 5454 5455 5457 5459 5461 5462
5486 5481 5476 5470 5464 5458 5452 5447 5442 5437 5432 5427 5424 5419 5413 5410 5408 5407 5405 5405 5405 5406 5406 5408 5409 5409 5411 5413 5415 5417 5419 5421 5422 5423 5424 5427 5429 5431 5433 5435 5437 5438 5440
5475 5470 5464 5458 5452 5445 5437 5430 5423 5415 5408 5402 5395 5391 5389 5384 5380 5380 5379 5377 5377 5378 5379 5381 5383 5384 5386 5388 5391 5393 5395 5397 5399 5400 5403 5405 5407 5409 5410 5412 5414 5416 5417
5463 5457 5450 5443 5436 5427 5418 5409 5399 5389 5380 5370 5363 5358 5353 5350 5350 5349 5348 5346 5348 5349 5349 5352 5354 5357 5359 5362 5365 5367 5368 5371 5375 5377 5379 5383 5384 5386 5389 5391 5393 5394 5394
5449 5441 5433 5424 5415 5404 5393 5382 5370 5358 5348 5341 5335 5329 5324 5321 5318 5316 5317 5314 5313 5316 5316 5320 5322 5326 5329 5334 5335 5339 5343 5344 5347 5351 5354 5358 5360 5363 5365 5367 5369 5371 5372
5433 5423 5413 5402 5391 5379 5367 5354 5344 5335 5328 5321 5315 5310 5306 5302 5298 5295 5294 5293 5289 5289 5290 5290 5291 5293 5298 5302 5305 5309 5313 5317 5320 5323 5328 5330 5334 5338 5341 5343 5345 5347 5348
5415 5404 5393 5381 5368 5356 5344 5334 5325 5316 5309 5302 5296 5290 5286 5282 5279 5276 5274 5274 5272 5269 5269 5271 5269 5269 5272 5273 5275 5279 5282 5286 5291 5295 5300 5303 5308 5308 5313 5315 5320 5322 5325